To NAV CANADA Home Page Login to a new session Search on AWWS site Feedback and Comments Disclaimer Vers la page française équivalente Tips FAQ What's new on the site To the Forecasts and Observations / NOTAM section To "File a Flight Plan" website Publications and other links Update of the User's profile FIC Telephone Numbers My Weather Data Folder Route Weather Data Regional Weather Data Local Weather Data To the Forecasts and Observations / NOTAM section
Request Generated 12/10/2016 at 16:29:58 UTC . Weather information available at that time is displayed.

METAR/TAF

SALLUIT/QC    

METAR CYZG 101600Z 25009KT 12SM -SN SCT015 BKN023 M17/M19 A2982 RMK
ST4SC2 CIG RAG SLP130=
SPECI CYZG 101539Z 26012KT 12SM -SN SCT012 BKN023 M17/M20 A2983 RMK
ST4SC2 SLP132=
METAR CYZG 101500Z 27018KT 8SM -SN OVC012 M17/M19 A2983 RMK ST8
SLP133=
METAR CYZG 101400Z 25013KT 8SM -SN OVC012 M16/M19 A2984 RMK ST8
SLP133=

CYZG - No TAF is issued for this station

Your time UTC time
Weather data provided by Environment Canada and NAV CANADA